• Join FlightAware (Why Join?)
  • Login
  • US Flag 
03:01AM EDT


 

Airport Tracker/Info


-or-


 

Live Flight TrackerFlight Track Log ✈ N317FL ✈ 27-Apr-2013 ✈ KIAD - KCGF

Flight Track Log - Related Links

Times and Time Zones

All times are in EDT time to prevent confusion due to time zone crossing. See the N317FL flight status page for this flight to view local times or setup timezone preferences in your user account.

Time Position Orientation Groundspeed Altitude Reporting Facility
EDT Latitude Longitude Course Direction KTS MPH feet Rate Location/Type
04:51PM 39.1700 -77.6480 North 284 327 18,200  Level FlightAware
04:53PM 39.3350 -77.4500 North  Level FlightAware Approximate
04:53PM 39.3330 -77.7970 325° Northwest 302 348 25,800  Level FlightAware
04:54PM 39.3790 -77.8450 321° Northwest 335 386 26,900 2,280 Climbing FlightAware
04:57PM 39.6140 -78.0899 321° Northwest 297 342 34,200 2,640 Climbing FlightAware ADS-B
04:57PM 39.6565 -78.1342 321° Northwest 262 302 36,800 2,280 Climbing FlightAware ADS-B
04:58PM 39.7030 -78.1830 321° Northwest 266 306 38,000 600 Climbing FlightAware
04:59PM 39.7610 -78.2450 321° Northwest 298 343 38,000 -300 Level FlightAware
05:00PM 39.8330 -78.3200 321° Northwest 322 371 37,500 -420 Descending FlightAware
05:02PM 39.9440 -78.4370 321° Northwest 322 371 37,000 -240 Descending FlightAware
05:02PM 39.9789 -78.4753 321° Northwest 322 371 37,000  Level Cleveland Center
05:03PM 40.0492 -78.5517 320° Northwest 322 371 37,000  Level Cleveland Center
05:04PM 40.1169 -78.6203 322° Northwest 322 371 37,000  Level Cleveland Center
05:05PM 40.1828 -78.6944 319° Northwest 317 365 37,000 -1,680 Level Cleveland Center
05:11PM 40.4970 -79.1530 319° Northwest 326 375 26,700 -1,800 Descending FlightAware
05:11PM 40.5270 -79.2080 306° West 326 375 26,700  Level FlightAware
05:12PM 40.5640 -79.2760 306° West 326 375 26,700  Level FlightAware
05:13PM 40.5950 -79.3300 307° West 326 375 26,700  Level FlightAware
05:14PM 40.6250 -79.3850 306° West 326 375 26,700  Level FlightAware
05:14PM 40.6550 -79.4400 306° West 326 375 26,700 -5,160 Level FlightAware
05:14PM 40.6958 -79.5069 306° West 331 381 22,000 -3,780 Descending Cleveland Center
05:15PM 40.7467 -79.6019 305° West 331 381 22,000  Level Cleveland Center
05:16PM 40.7997 -79.6944 307° West 331 381 22,000  Level Cleveland Center
05:17PM 40.8525 -79.7925 305° West 331 381 22,000  Level Cleveland Center
05:18PM 40.9053 -79.8853 307° West 326 375 22,000 -660 Level Cleveland Center
05:24PM 41.1940 -80.4200 307° West 318 366 18,000 -720 Descending FlightAware
05:25PM 41.2280 -80.4840 305° West 318 366 17,900 -480 Descending FlightAware
05:25PM 41.2700 -80.5620 306° West 327 376 17,300 -1,140 Descending FlightAware
05:26PM 41.3240 -80.6620 306° West 323 372 15,900 -840 Descending FlightAware
05:27PM 41.3530 -80.7170 305° West 323 372 15,900 -2,100 Level FlightAware
05:28PM 41.3860 -80.8190 293° West 289 333 12,600 -2,880 Descending FlightAware
05:29PM 41.4110 -80.8850 297° West 282 325 11,100 -2,280 Descending FlightAware
05:29PM 41.4310 -80.9370 297° West 278 320 9,800 -2,340 Descending FlightAware
05:30PM 41.4430 -80.9830 289° West 271 312 8,800 -1,800 Descending FlightAware
05:30PM 41.4500 -81.0090 290° West 265 305 8,300 -1,680 Descending FlightAware
05:30PM 41.4590 -81.0460 288° West 261 300 7,700 -1,620 Descending FlightAware
05:31PM 41.4670 -81.0780 288° West 258 297 7,100 -1,800 Descending FlightAware
05:31PM 41.4790 -81.1270 288° West 255 293 6,100 -1,920 Descending FlightAware
05:32PM 41.4900 -81.1740 287° West 254 292 5,200 -1,680 Descending FlightAware
05:32PM 41.4990 -81.2090 289° West 251 289 4,600 -1,320 Descending FlightAware
05:33PM 41.5080 -81.2490 287° West 248 285 4,000 -1,440 Descending FlightAware
05:33PM 41.5200 -81.2970 288° West 238 274 3,200 -1,320 Descending FlightAware
05:34PM 41.5280 -81.3330 287° West 226 260 2,800 -840 Descending FlightAware
05:34PM 41.5290 -81.3380 285° West 223 257 2,800 -180 Level FlightAware
05:34PM 41.5340 -81.3830 278° West 199 229 2,700 -120 Descending FlightAware
05:35PM 41.5370 -81.4180 277° West 192 221 2,700 60 Level FlightAware
05:35PM 41.5410 -81.4520 279° West 187 215 2,800 -120 Climbing FlightAware
05:36PM 41.5340 -81.4900 256° West 135 155 2,600 -600 Descending FlightAware
05:36PM 41.5260 -81.5110 243° Southwest 139 160 2,100 -1,200 Descending FlightAware
05:37PM 41.5350 -81.5250 311° West 132 152 1,500 -1,020 Descending FlightAware
05:38PM 41.5510 -81.5090 37° Northeast 114 131 1,000 -480 Descending FlightAware
05:38PM 41.5600 -81.4960 47° Northeast 114 131 1,000  Level FlightAware
05:45PM 41.5500 -81.4833 56° Northeast  Level FlightAware Approximate
05:46PM 41.5651 -81.4864 56° Northeast  Level Estimated